SL-12 R/B(AUX MOTOR), 29680

Orbit data source: Space-Track

SL-12 R/B(AUX MOTOR), 29680 is space debris in HEO originally from a launch on Mon, 25 Dec 2006 UTC launched from the Tyuratam Missile And Space Complex (TTMTR). Debris objects in space refer to the collection of defunct objects orbiting the Earth. Examples of debris include non-operational satellites, rocket bodies, and fragments generated from explosions, collisions, or faulty payload assembly.

Loading next visibility...
SL-12 R/B(AUX MOTOR) details
Identifier
29680, 2006-062G
Orbit
HEO
Last TLE update1 day ago
Origin
Flag of CISRVSN RF (CIS)
ManufacturerRKKE
MissionSpacecraft
Bus & MotorSOZ, Unknown motor
Mass56 kg wet, 56 kg dry
Launch date (UTC)
2006-12-25 (18 years ago)
Launch vehicleUnknown
Launch site
Tyuratam Missile And Space Complex (TTMTR)
Object type
Payload
Rocket body
Debris
Shape & HBRCyl, 1.1 m
Radar Cross Section0.660 m², Medium (>0.1 m² and < 1m²)

Expand to show TLE details & history

TLE from 1 day ago
0 SL-12 R/B(AUX MOTOR)
1 29680U 06062G   24360.22378961  .00000113  00000-0  33397-3 0  9995
2 29680  65.1549 228.2555 5622851 237.7858  55.5245  4.25820765177487
Epoch: 2024-12-25T05:22Z
Definitive object data (Epoch: 2024-12-25T05:22:15.422Z)
Latitude-0.00002°
Longitude53.47524°
Altitude9,338.225 km
Speed5.093 km/s
True Right ascension15h 13m 02s
True Declination0° 00' 00"
Sunlit
Object was in daylight at TLE epoch
Visualization TLE readout
Latitude32.16933°
Longitude69.94976°
Altitude16,630.774 km
Speed3.141 km/s
Apparent Right ascension17h 13m 39s
Apparent Declination21° 36' 60"
Sunlit
Object is in daylight
Visualization observer readout
Local Sidereal Time09:54:14
Azimuth60.977° ENE
Elevation-0.331°
Doppler factor1
Orbital elements
Apogee altitude18,739.594 km
Perigee altitude659.25 km
Semi-major axis16,077.559 km
Eccentricity0.5622851
Inclination65.1549°
RAAN228.2555°
Arg. of periapsis237.7858°
True anomaly122.30329°
Mean anomaly55.5245°
Eccentric anomaly87.71546°
Mean motion1.06467 °/min
BSTAR0.00033397
Orbital period338.13 mins
Loading maneuver chart data...
Loading historical data...
Loading historical data...
Loading historical data...
Loading historical data...
Loading historical data...
Loading historical data...
Loading historical data...

SL-12 R/B(AUX MOTOR) Visibility forecast

Observer location: undefined°, undefined

Span
Click to sort rows by Start time (UTC) header in descending order
Start Az.
Max El. time (UTC)
Max El. Az.
Max El.
End time (UTC)
End Az.
47 mins2024-12-26 11:29:02.508Z44.616° NE2024-12-26 11:54:02.508Z37.021° NE11.179°2024-12-26 12:16:02.508Z29.96° NE
242 mins2024-12-26 15:01:02.508Z170.385° S2024-12-26 16:34:02.508Z85.672° E44.373°2024-12-26 19:03:02.508Z41.694° NE
224 mins2024-12-26 21:31:02.508Z280.123° WNW2024-12-27 00:52:02.508Z40.946° NE42.853°2024-12-27 01:15:02.508Z123.594° SE
41 mins2024-12-27 05:58:02.508Z330.897° NNW2024-12-27 06:24:02.508Z312.634° NW13.213°2024-12-27 06:39:02.508Z291.813° WNW
|